Location: G�ppingen
(48.7089°N, 9.6563°E)
Time: 09:03:06
(UTC+01:00)

ISS - Pass Details

Date: 29 October 2019
Orbit: 412 x 421 km, 51.6° (Epoch: 17 November)

Event Time Altitude Azimuth Distance (km) Brightness Sun altitude
Exits shadow 04:56:48 39° 162° (SSE) 652 -2.8 -21.2°
Maximum altitude 04:57:05 40° 148° (SSE) 640 -2.7 -21.2°
Drops below altitude 10° 05:00:17 10° 77° (ENE) 1,509 0.2 -20.6°
Sets 05:02:27 0° 70° (ENE) 2,375 1.4 -20.3°
